Flag for United Kingdom Weather past 2 weeks in Aberdeen, Scotland, United Kingdom

Now
46 °F

Scattered clouds.


Feels Like: 44 °F
Forecast: N/A
Wind: 6 mph from Southwest

Location: Aberdeen / Dyce

Current Time: Dec 18, 2014 at 2:49:09 PM

Latest Report: Dec 18, 2014 at 2:20 PM


Visibility: N/A

Pressure: 29.24 "Hg

Humidity: 76%

Dew point: 39 °F

Location of AberdeenLocation

Historic Weather in Aberdeen — Graph

°F

Aberdeen temperature yesterday

Maximum temperature yesterday: 48 °F (at 11:20 AM)
Minimum temperature yesterday: 34 °F (at 5:20 AM)
Average temperature yesterday: 42 °F

Past Weeks' High & Low Weather Summary

 TemperatureHumidityPressure
High52 °F (Dec 9, 4:20 PM)100% (Dec 3, 7:50 PM)30.24 "Hg (Dec 3, 7:50 PM)
Low27 °F (Dec 4, 1:20 AM)61% (Dec 14, 2:50 PM)29.03 "Hg (Dec 12, 5:50 AM)
Average38 °F81%29.58 "Hg
* Reported Dec 3 1:20 PM — Dec 18 1:50 PM, Aberdeen, Weather by CustomWeather, © 2014

Note: Actual official high and low records may vary slightly from our data, if they occured in-between our weather recording intervals... More about our weather records

Advertising

Aberdeen weather history for previous 24 hours

 ConditionsComfort  
Time TempWeatherWind HumidityBarometerVisibility
1:50 PM
Dec 18
48 °FSunny.8 mph71%29.24 "Hg10 mi
1:20 PM48 °FSunny.9 mph71%29.24 "Hg10 mi
12:50 PM46 °FPassing clouds.6 mph76%29.24 "HgN/A
12:20 PM48 °FPassing clouds.6 mph71%29.24 "HgN/A
11:50 AM46 °FSunny.6 mph76%29.24 "Hg10 mi
11:20 AM48 °FPassing clouds.6 mph71%29.24 "HgN/A
10:20 AM48 °FPassing clouds.5 mph71%29.27 "HgN/A
9:50 AM46 °FPassing clouds.2 mph76%29.27 "HgN/A
9:20 AM46 °FSunny.No wind76%29.27 "Hg10 mi
8:50 AM46 °FSunny.2 mph76%29.27 "Hg10 mi
8:20 AM41 °FClear.3 mph93%29.27 "Hg10 mi
7:50 AM39 °FClear.3 mph93%29.27 "Hg10 mi
7:20 AM39 °FClear.3 mph93%29.27 "Hg10 mi
6:50 AM39 °FClear.2 mph100%29.30 "Hg10 mi
6:20 AM37 °FPassing clouds.5 mph93%29.27 "HgN/A
5:50 AM36 °FClear.3 mph93%29.30 "Hg10 mi
5:20 AM37 °FClear.2 mph87%29.30 "Hg10 mi
4:50 AM37 °FPassing clouds.2 mph93%29.30 "HgN/A
4:20 AM39 °FChilly.3 mph87%29.30 "HgN/A
3:20 AM37 °FChilly.6 mph87%29.33 "HgN/A
2:50 AM36 °FClear.6 mph87%29.36 "Hg10 mi
2:20 AM36 °FChilly.5 mph87%29.36 "HgN/A
1:50 AM39 °FClear.3 mph87%29.36 "Hg10 mi
1:20 AM37 °FChilly.5 mph87%29.36 "HgN/A
12:50 AM37 °FChilly.7 mph87%29.36 "HgN/A
12:20 AM37 °FChilly.7 mph87%29.39 "HgN/A
11:50 PM
Dec 17
39 °FClear.8 mph87%29.39 "Hg10 mi
11:20 PM39 °FChilly.8 mph87%29.39 "HgN/A
10:20 PM39 °FPassing clouds.9 mph87%29.39 "HgN/A
9:50 PM39 °FPassing clouds.5 mph87%29.42 "HgN/A
9:20 PM41 °FPassing clouds.6 mph81%29.42 "HgN/A
8:50 PM41 °FPassing clouds.6 mph81%29.42 "HgN/A
8:20 PM41 °FPassing clouds.7 mph81%29.42 "HgN/A
7:50 PM39 °FPassing clouds.6 mph81%29.42 "HgN/A
7:20 PM43 °FPassing clouds.6 mph76%29.42 "HgN/A
6:50 PM43 °FPassing clouds.7 mph76%29.42 "HgN/A
6:20 PM43 °FPassing clouds.8 mph76%29.42 "HgN/A
5:50 PM43 °FPassing clouds.5 mph76%29.42 "HgN/A
5:20 PM43 °FPassing clouds.5 mph76%29.42 "HgN/A
4:50 PM45 °FPassing clouds.6 mph71%29.42 "HgN/A
4:20 PM46 °FPassing clouds.8 mph71%29.42 "HgN/A
3:50 PM46 °FPassing clouds.8 mph76%29.42 "HgN/A
3:20 PM46 °FPartly sunny.7 mph76%29.39 "HgN/A
2:50 PM46 °FPartly sunny.5 mph76%29.39 "HgN/A
2:20 PM48 °FPartly sunny.7 mph71%29.39 "HgN/A
Weather by CustomWeather, © 2014

See weather overviewHow to use our weather pages